This is the latest recevied weather packets stored in our database for station/object KO6LQK. If no packets are shown the sender has not sent any weather packets the latest 10 day(s).
| Time | Temp. | Humidity | Pressure | Rain* | Wind** | Luminosity | Snow |
|---|---|---|---|---|---|---|---|
| 1788312893 | 25.56° C | 16% | 1020.2 hPa | 0 mm | - | 59 W/m² | - |
| 1788312588 | 25.56° C | 15% | 1019.9 hPa | 0 mm | - | 65 W/m² | - |
| 1788312294 | 26.11° C | 15% | 1020.2 hPa | 0 mm | - | 77 W/m² | - |
| 1788311979 | 26.11° C | 15% | 1020.3 hPa | 0 mm | - | 88 W/m² | - |
| 1788311675 | 26.11° C | 15% | 1020.2 hPa | 0 mm | - | 112 W/m² | - |
| 1788311373 | 26.11° C | 15% | 1020.1 hPa | 0 mm | - | 133 W/m² | - |
| 1788311069 | 26.67° C | 15% | 1020.2 hPa | 0 mm | - | 168 W/m² | - |
| 1788310768 | 26.67° C | 15% | 1020.4 hPa | 0 mm | - | 190 W/m² | - |
| 1788310467 | 26.67° C | 15% | 1020.4 hPa | 0 mm | - | 216 W/m² | - |
| 1788310164 | 26.67° C | 15% | 1020.2 hPa | 0 mm | - | 231 W/m² | - |
| 1788309863 | 26.67° C | 14% | 1020.3 hPa | 0 mm | - | 245 W/m² | - |
| 1788309558 | 27.22° C | 15% | 1020.5 hPa | 0 mm | - | 269 W/m² | - |
| 1788309253 | 27.22° C | 15% | 1020.4 hPa | 0 mm | - | 288 W/m² | - |
| 1788308949 | 27.22° C | 15% | 1020.3 hPa | 0 mm | - | 316 W/m² | - |
| 1788308649 | 27.22° C | 15% | 1020.4 hPa | 0 mm | - | 336 W/m² | - |
| 1788308343 | 27.22° C | 15% | 1020.7 hPa | 0 mm | - | 358 W/m² | - |
| 1788308038 | 27.22° C | 15% | 1020.7 hPa | 0 mm | - | 374 W/m² | - |
| 1788307733 | 27.22° C | 15% | 1020.7 hPa | 0 mm | - | 402 W/m² | - |
| 1788307433 | 27.22° C | 15% | 1020.6 hPa | 0 mm | - | 421 W/m² | - |
| 1788307129 | 27.78° C | 15% | 1020.8 hPa | 0 mm | - | 448 W/m² | - |
| 1788306829 | 27.78° C | 14% | 1020.8 hPa | 0 mm | - | 464 W/m² | - |
| 1788306524 | 27.78° C | 15% | 1020.9 hPa | 0 mm | - | 488 W/m² | - |
| 1788306223 | 27.78° C | 15% | 1020.7 hPa | 0 mm | - | 499 W/m² | - |
| 1788305919 | 27.78° C | 14% | 1020.6 hPa | 0 mm | - | 518 W/m² | - |
| 1788305615 | 27.78° C | 15% | 1020.9 hPa | 0 mm | - | 532 W/m² | - |
* Rain latest hour (hover to see other rain measurements)
** Current wind speed in m/s (hover to see current wind gust speed)